[[{"header":{"parameterUnit":"m.s-1","parameterCategory":1,"la1":30.2991,"la2":30.254,"lo1":-89.0895,"lo2":-89.0444,"dy":0.0017,"dx":0.0017,"nx":28,"ny":28,"refTime":"2023-07-29T09:00:00:Z","depth":0,"parameterNumber":2,"parameterNumberName":"U-component_of_WINDS"},"data":[0,0,0,0,0,0,0,0,0,0,0,0,0,0,0,0,0,0,0,0,0,0,0,0,0,0,0,0,0,0,0,0,0,0,0,0,0,0,0,0,0,0,0,0,0,0,0,0,0,0,0,0,0,0,0,0,0,0,2.3042,2.3043,0,2.3138,2.3139,2.314,2.3169,2.3169,2.3169,2.3168,2.3266,2.3269,2.3272,0,0,0,0,0,0,0,0,0,0,0,0,0,2.2886,2.2888,2.3042,2.3043,2.3044,2.3137,2.3139,2.314,2.317,2.3169,2.3168,2.3168,2.3265,2.3269,2.3272,0,0,0,0,0,0,0,0,0,0,0,0,0,2.2964,2.2889,2.3042,2.307,2.3074,2.3137,2.3139,2.314,2.317,2.3169,2.3168,2.3168,2.3264,2.3268,2.3273,2.3315,0,0,2.3287,2.3289,0,0,0,0,0,0,0,0,2.296,2.297,2.3065,2.3068,2.3072,2.3141,2.312,2.3199,2.317,2.3133,2.3168,2.3167,2.3225,2.3233,2.3252,2.332,2.3324,2.3287,2.329,2.3292,2.3293,0,0,0,0,0,0,0,2.2954,2.2966,2.308,2.3066,2.3071,2.3079,2.3089,2.3135,2.3182,2.3136,2.3139,2.315,2.3227,2.3248,2.3255,2.3325,2.3287,2.3291,2.3294,2.3296,2.3434,2.3434,0,0,0,0,0,0,2.2944,2.2961,2.3077,2.3083,2.3013,2.3082,2.3094,2.312,2.3181,2.319,2.315,2.3151,2.324,2.3249,2.3258,2.3313,2.3292,2.3296,2.3299,2.3433,2.3434,2.3435,0,0,0,0,0,0,2.2941,2.2954,2.3073,2.3023,2.3038,2.3085,2.3114,2.3122,2.3143,2.3192,2.32,2.3163,2.324,2.3252,2.3301,2.3317,2.3298,2.3302,2.3432,2.3433,2.3434,2.3421,0,0,0,0,0,0,2.2936,2.2953,2.2969,2.3023,2.3041,2.3113,2.3115,2.3124,2.315,2.3152,2.3206,2.3214,2.3241,2.3294,2.3306,2.3323,2.3306,2.343,2.3432,2.3434,2.342,2.3422,2.3423,0,0,0,0,0,2.293,2.2961,2.2969,2.2983,2.3062,2.3114,2.3125,2.3154,2.3151,2.3168,2.32,2.3212,2.3313,2.3299,2.3312,2.3331,2.343,2.3432,2.3434,2.342,2.3422,2.3423,0,0,0,0,0,0,2.2907,2.2968,2.2979,2.3027,2.3065,2.3119,2.3141,2.3155,2.3195,2.3194,2.323,2.3242,2.3288,2.3314,2.3298,2.3375,2.3372,2.3377,2.3357,2.3359,2.336,2.3353,2.331,0,0,0,0,0,2.2907,2.2944,2.2996,2.3034,2.3053,2.3094,2.3118,2.3137,2.3178,2.3194,2.323,2.3269,2.331,2.3336,2.3376,2.3424,2.3437,2.3444,2.3445,2.3446,2.345,2.3479,2.3483,2.3442,2.3442,2.3442,0,0,2.2909,2.2947,2.2968,2.3031,2.3063,2.3101,2.3107,2.3147,2.3176,2.32,2.3249,2.3277,2.3323,2.3372,2.3396,2.3396,2.3464,2.3449,2.3449,2.3453,2.3482,2.3485,2.3489,2.3443,2.3443,2.3443,0,0,2.2931,2.2963,2.3,2.3031,2.308,2.3107,2.3115,2.3168,2.3187,2.3237,2.3256,2.3291,2.336,2.3393,2.3418,2.3454,2.3468,2.3466,2.3474,2.3502,2.3505,2.3508,2.3522,2.3527,2.347,2.347,2.347,0,2.2927,2.2985,2.3016,2.3056,2.3083,2.3107,2.3145,2.3174,2.3233,2.3252,2.325,2.3338,2.3371,2.3429,2.3438,2.3458,2.3469,2.3461,2.3502,2.3506,2.3509,2.3523,2.3528,2.347,2.347,2.347,2.347,0,2.2978,2.3018,2.3042,2.3098,2.3128,2.3166,2.3204,2.323,2.3248,2.3275,2.3326,2.3367,2.3416,2.3431,2.3448,2.3492,2.3491,2.3495,2.3492,2.3512,2.3526,2.3531,2.3469,2.3469,2.3469,2.347,0,0,2.2988,2.3062,2.307,2.3097,2.3153,2.3184,2.3224,2.3272,2.3295,2.3335,2.337,2.3428,2.3433,2.3462,2.3483,2.3508,2.3536,2.351,2.3512,2.3514,2.3588,2.3585,2.359,2.3545,2.3546,2.3547,2.3585,0,2.3018,2.309,2.312,2.3178,2.3216,2.324,2.3275,2.3313,2.334,2.3377,2.3407,2.3448,2.3451,2.3469,2.3494,2.3527,2.3551,2.3524,2.3578,2.3579,2.3566,2.3597,2.3594,2.3627,2.359,2.3591,2.3591,0,2.3063,2.3104,2.3166,2.3218,2.3235,2.3266,2.3313,2.3348,2.3392,2.341,2.3443,2.3463,2.3506,2.3501,2.3561,2.3543,2.3566,2.3586,2.3588,2.3594,2.3587,2.3605,2.3639,2.3644,2.36,2.3599,2.3599,0,2.3065,2.3136,2.3182,2.3204,2.3266,2.3287,2.3314,2.3358,2.3385,2.3427,2.3445,2.3491,2.3517,2.3552,2.3584,2.3577,2.3642,2.3639,2.3659,2.3659,2.3672,2.3671,2.3711,2.3686,2.3686,2.3686,2.3686,0,2.3096,2.3133,2.3184,2.3213,2.3256,2.329,2.3332,2.336,2.3399,2.3434,2.3458,2.349,2.3531,2.3569,2.3594,2.3641,2.3652,2.3669,2.3675,2.3667,2.3665,2.3684,2.3682,2.3687,2.3687,2.3687,2.3687,0,2.3106,2.3141,2.3194,2.3249,2.3263,2.3293,2.334,2.3369,2.3397,2.3442,2.3454,2.3499,2.3545,2.3581,2.364,2.3658,2.3708,2.3714,2.3693,2.3696,2.3715,2.3713,2.3768,2.3778,2.3746,2.3746,2.3746,0,2.3124,2.3153,2.3211,2.3237,2.3263,2.3304,2.3333,2.3368,2.3397,2.345,2.3473,2.3521,2.3561,2.3633,2.3672,2.3718,2.3726,2.3742,2.3733,2.3725,2.3728,2.3726,2.3729,2.3744,2.3744,2.3744,2.3744,0,2.3152,2.3168,2.3209,2.3256,2.3289,2.3328,2.3367,2.3387,2.3429,2.346,2.3508,2.3539,2.3601,2.3648,2.3698,2.3727,2.3743,2.3747,2.3754,2.3746,2.3733,2.3742,2.3697,2.3745,2.3745,2.3745,2.3745,2.3745,2.3167,2.3195,2.3241,2.3285,2.3319,2.3355,2.3385,2.3418,2.3458,2.3511,2.353,2.3579,2.3624,2.3693,2.3722,2.3761,2.3762,2.3772,2.3775,2.3777,2.3777,2.3726,2.377,2.377,2.377,2.377,2.377,0,2.3198,2.3228,2.3269,2.3323,2.3359,2.3371,2.3415,2.3444,2.3487,2.3528,2.3567,2.3622,2.3669,2.3711,2.3759,2.3783,2.3792,2.3795,2.3794,2.38,2.3773,2.3762,2.3787,2.3787,2.3787,2.3787,2.3787,2.3787,2.3218,2.3266,2.3288,2.3353,2.3384,2.3432,2.3457,2.3491,2.3523,2.3584,2.3623,2.365,2.3692,2.3744,2.3787,2.3799,2.3816,2.3817,2.383,2.3804,2.3802,2.38,2.379,2.382,2.382,2.3854,2.3855,2.3855]},{"header":{"parameterUnit":"m.s-1","parameterCategory":1,"la1":30.2991,"la2":30.254,"lo1":-89.0895,"lo2":-89.0444,"dy":0.0017,"dx":0.0017,"nx":28,"ny":28,"refTime":"2023-07-29T09:00:00:Z","depth":0,"parameterNumber":3,"parameterNumberName":"V-component_of_WINDS"},"data":[0,0,0,0,0,0,0,0,0,0,0,0,0,0,0,0,0,0,0,0,0,0,0,0,0,0,0,0,0,0,0,0,0,0,0,0,0,0,0,0,0,0,0,0,0,0,0,0,0,0,0,0,0,0,0,0,0,0,-0.5574,-0.5574,0,-0.5602,-0.5602,-0.5602,-0.5607,-0.5607,-0.5607,-0.5607,-0.5635,-0.5636,-0.5637,0,0,0,0,0,0,0,0,0,0,0,0,0,-0.5525,-0.5526,-0.5574,-0.5574,-0.5574,-0.5602,-0.5602,-0.5602,-0.5608,-0.5607,-0.5607,-0.5607,-0.5635,-0.5636,-0.5637,0,0,0,0,0,0,0,0,0,0,0,0,0,-0.5549,-0.5526,-0.5574,-0.558,-0.5581,-0.5602,-0.5602,-0.5603,-0.5608,-0.5607,-0.5607,-0.5607,-0.5634,-0.5636,-0.5637,-0.5653,0,0,-0.5642,-0.5642,0,0,0,0,0,0,0,0,-0.5548,-0.5551,-0.5579,-0.558,-0.5581,-0.5601,-0.5595,-0.5619,-0.5608,-0.5597,-0.5607,-0.5606,-0.5624,-0.5626,-0.5632,-0.5654,-0.5656,-0.5642,-0.5643,-0.5643,-0.5644,0,0,0,0,0,0,0,-0.5546,-0.555,-0.5585,-0.5579,-0.558,-0.5582,-0.5585,-0.56,-0.5612,-0.5598,-0.5599,-0.5602,-0.5624,-0.5631,-0.5633,-0.5656,-0.5642,-0.5643,-0.5644,-0.5645,-0.5694,-0.5695,0,0,0,0,0,0,-0.5543,-0.5548,-0.5584,-0.5586,-0.5563,-0.5583,-0.5587,-0.5595,-0.5612,-0.5614,-0.5602,-0.5602,-0.5629,-0.5631,-0.5634,-0.5655,-0.5643,-0.5645,-0.5646,-0.5694,-0.5695,-0.5695,0,0,0,0,0,0,-0.5542,-0.5546,-0.5583,-0.5567,-0.5572,-0.5584,-0.5593,-0.5595,-0.5602,-0.5615,-0.5617,-0.5607,-0.5628,-0.5632,-0.5649,-0.5656,-0.5645,-0.5647,-0.5693,-0.5694,-0.5695,-0.5696,0,0,0,0,0,0,-0.5541,-0.5546,-0.5552,-0.5567,-0.5573,-0.5597,-0.5594,-0.5596,-0.5604,-0.5604,-0.562,-0.5622,-0.5628,-0.5647,-0.565,-0.5658,-0.5648,-0.5693,-0.5694,-0.5695,-0.5695,-0.5697,-0.5698,0,0,0,0,0,-0.5539,-0.555,-0.5552,-0.5556,-0.558,-0.5597,-0.56,-0.5608,-0.5605,-0.5611,-0.562,-0.5621,-0.5654,-0.5648,-0.5652,-0.566,-0.5692,-0.5694,-0.5695,-0.5695,-0.5696,-0.5698,0,0,0,0,0,0,-0.5535,-0.5552,-0.5554,-0.5571,-0.5583,-0.5598,-0.5606,-0.5609,-0.5621,-0.5621,-0.5629,-0.5632,-0.5649,-0.5656,-0.5649,-0.5677,-0.5673,-0.5675,-0.5672,-0.5674,-0.5675,-0.5673,-0.5649,0,0,0,0,0,-0.5536,-0.5548,-0.5563,-0.5576,-0.5582,-0.5593,-0.5601,-0.5606,-0.5618,-0.5623,-0.5632,-0.5644,-0.5658,-0.5666,-0.5679,-0.5696,-0.57,-0.5704,-0.5705,-0.5706,-0.5708,-0.5719,-0.5721,-0.5698,-0.5698,-0.5698,0,0,-0.5538,-0.5549,-0.5556,-0.5576,-0.5585,-0.5598,-0.5597,-0.561,-0.562,-0.5624,-0.5641,-0.5649,-0.5663,-0.5681,-0.5689,-0.5687,-0.5715,-0.5707,-0.5708,-0.5709,-0.572,-0.5723,-0.5725,-0.5699,-0.5699,-0.5699,0,0,-0.5549,-0.5559,-0.5571,-0.5581,-0.5596,-0.5604,-0.5607,-0.5622,-0.5628,-0.5645,-0.5649,-0.5661,-0.5683,-0.5693,-0.5701,-0.5718,-0.572,-0.5721,-0.5728,-0.5739,-0.574,-0.5742,-0.5749,-0.5751,-0.5723,-0.5723,-0.5723,0,-0.555,-0.557,-0.5578,-0.5591,-0.56,-0.5605,-0.5619,-0.5628,-0.5646,-0.5652,-0.565,-0.5679,-0.5689,-0.571,-0.5714,-0.572,-0.5725,-0.572,-0.574,-0.5741,-0.5743,-0.575,-0.5752,-0.5723,-0.5723,-0.5723,-0.5723,0,-0.5571,-0.5584,-0.5593,-0.5611,-0.5621,-0.5635,-0.5645,-0.5654,-0.5659,-0.5667,-0.5685,-0.5697,-0.5713,-0.5718,-0.5722,-0.574,-0.5738,-0.5738,-0.5734,-0.5745,-0.5752,-0.5754,-0.5723,-0.5723,-0.5723,-0.5723,0,0,-0.5579,-0.5603,-0.5606,-0.5615,-0.5632,-0.5643,-0.5657,-0.5673,-0.5682,-0.5694,-0.5707,-0.5726,-0.5726,-0.5736,-0.5741,-0.575,-0.5765,-0.5749,-0.5749,-0.5752,-0.5787,-0.5787,-0.579,-0.5766,-0.5767,-0.5767,-0.5786,0,-0.5593,-0.5619,-0.5627,-0.5649,-0.5662,-0.5668,-0.5681,-0.5693,-0.5701,-0.5714,-0.5723,-0.5737,-0.5735,-0.5741,-0.5751,-0.5761,-0.5772,-0.5759,-0.5779,-0.5779,-0.5776,-0.5793,-0.5794,-0.5811,-0.5788,-0.5789,-0.5789,0,-0.5612,-0.5626,-0.5649,-0.5666,-0.5672,-0.5683,-0.57,-0.5712,-0.5726,-0.5732,-0.5743,-0.5748,-0.5764,-0.5759,-0.5781,-0.5773,-0.5781,-0.5787,-0.5788,-0.5791,-0.5785,-0.5797,-0.5817,-0.5819,-0.5793,-0.5793,-0.5792,0,-0.5617,-0.5641,-0.5659,-0.5666,-0.5686,-0.5694,-0.5703,-0.5717,-0.5727,-0.5741,-0.5748,-0.5764,-0.5772,-0.5785,-0.5794,-0.579,-0.5816,-0.5812,-0.5822,-0.5822,-0.5827,-0.5827,-0.5849,-0.5832,-0.5832,-0.5832,-0.5832,0,-0.5632,-0.5646,-0.5662,-0.5672,-0.5689,-0.5699,-0.5715,-0.5724,-0.5737,-0.575,-0.5756,-0.5768,-0.5779,-0.5793,-0.5801,-0.5819,-0.5823,-0.5828,-0.583,-0.5828,-0.5827,-0.5834,-0.5833,-0.5832,-0.5832,-0.5832,-0.5832,0,-0.564,-0.5651,-0.567,-0.5688,-0.5693,-0.5705,-0.5721,-0.5732,-0.574,-0.5757,-0.5762,-0.5776,-0.5792,-0.5803,-0.5824,-0.5829,-0.585,-0.5851,-0.5845,-0.5846,-0.5856,-0.5855,-0.5883,-0.5888,-0.5867,-0.5867,-0.5867,0,-0.5648,-0.566,-0.5679,-0.5689,-0.5698,-0.5713,-0.5723,-0.5734,-0.5744,-0.5763,-0.5772,-0.5789,-0.5804,-0.5831,-0.5843,-0.5859,-0.5861,-0.587,-0.5864,-0.5862,-0.5863,-0.5862,-0.5864,-0.5871,-0.5872,-0.5872,-0.5872,0,-0.5663,-0.5669,-0.5683,-0.57,-0.5713,-0.5727,-0.574,-0.5748,-0.5761,-0.5773,-0.5791,-0.5802,-0.5824,-0.5842,-0.586,-0.5869,-0.5873,-0.5874,-0.5877,-0.5875,-0.5872,-0.5875,-0.5849,-0.5873,-0.5873,-0.5873,-0.5873,-0.5873,-0.5672,-0.5683,-0.5699,-0.5716,-0.5728,-0.5741,-0.5753,-0.5764,-0.5779,-0.5798,-0.5804,-0.5823,-0.5839,-0.5863,-0.5873,-0.5888,-0.5887,-0.5892,-0.5893,-0.5894,-0.5895,-0.5869,-0.5892,-0.5892,-0.5892,-0.5892,-0.5892,0,-0.5688,-0.5699,-0.5715,-0.5734,-0.5748,-0.5751,-0.5767,-0.5778,-0.5795,-0.5809,-0.5824,-0.5845,-0.5863,-0.5877,-0.5895,-0.5904,-0.5907,-0.5909,-0.5909,-0.5911,-0.5894,-0.589,-0.5907,-0.5907,-0.5907,-0.5907,-0.5907,-0.5907,-0.5698,-0.5717,-0.5725,-0.575,-0.5761,-0.578,-0.5789,-0.5802,-0.5814,-0.5837,-0.5852,-0.5862,-0.5876,-0.5896,-0.5913,-0.5916,-0.5923,-0.5925,-0.5929,-0.5914,-0.5912,-0.591,-0.5906,-0.5926,-0.5926,-0.5945,-0.5945,-0.5945]}]]